Flag for Central African Republic Weather past 2 weeks in Bambari, Central African Republic

Now
95 °F

Partly sunny.


Feels Like: 101 °F
Forecast: 74 / 96 °F
Wind: 8 mph from South

Location: Bangui Airport

Current Time: Jan 26, 2015 at 3:43:17 PM

Latest Report: Jan 26, 2015 at 3:00 PM


Visibility: N/A

Pressure: 29.77 "Hg

Humidity: 44%

Dew point: 70 °F

Location of BambariLocation

Historic Weather in Bambari — Graph

°F

Bambari temperature yesterday

Maximum temperature yesterday: 91 °F (at 1:00 PM)
Minimum temperature yesterday: 73 °F (at 6:00 AM)
Average temperature yesterday: 82 °F

Past Weeks' High & Low Weather Summary

 TemperatureHumidityPressure
High99 °F (Jan 22, 3:00 PM)100% (Jan 24, 3:00 AM)30.01 "Hg (Jan 24, 3:00 AM)
Low54 °F (Jan 14, 6:00 AM)14% (Jan 15, 2:00 PM)29.71 "Hg (Jan 24, 3:00 PM)
Average77 °F60%29.87 "Hg
* Reported Jan 11 2:00 PM — Jan 26 2:00 PM, Bambari, Weather by CustomWeather, © 2014

Note: Actual official high and low records may vary slightly from our data, if they occured in-between our weather recording intervals... More about our weather records

Advertising

Bambari weather history for previous 24 hours

 ConditionsComfort  
Time TempWeatherWind HumidityBarometerVisibility
2:00 PM
Jan 26
97 °FPartly sunny.2 mph42%29.77 "HgN/A
1:00 PM93 °FPartly sunny.7 mph47%29.80 "HgN/A
12:00 PM91 °FSunny.5 mph46%29.83 "Hg10 mi
10:00 AM84 °FPassing clouds.5 mph66%29.89 "HgN/A
9:00 AM79 °FSunny.5 mph74%29.92 "Hg10 mi
8:00 AM77 °FClear.3 mph79%29.89 "Hg4 mi
7:00 AM73 °FLow clouds.No wind89%29.89 "Hg5 mi
6:00 AM73 °FPartly sunny.2 mph94%29.86 "Hg5 mi
5:00 AM73 °FClear.No wind94%29.86 "Hg10 mi
4:00 AM75 °FPassing clouds.No wind89%29.86 "HgN/A
3:00 AM75 °FThunderstorms. Passing clouds.2 mph89%29.83 "HgN/A
1:00 AM77 °FThunderstorms. Passing clouds.No wind83%29.83 "HgN/A
12:00 AM79 °FThunderstorms. Passing clouds.No wind84%29.83 "HgN/A
11:00 PM
Jan 25
77 °FPassing clouds.7 mph89%29.86 "HgN/A
10:00 PM77 °FClear.2 mph89%29.83 "Hg10 mi
9:00 PM81 °FThunderstorms. Passing clouds.No wind79%29.83 "Hg4 mi
8:00 PM81 °FThunderstorms. Passing clouds.No wind84%29.80 "Hg4 mi
6:00 PM84 °FClear.2 mph74%29.77 "Hg4 mi
5:00 PM88 °FPartly sunny.3 mph66%29.74 "HgN/A
4:00 PM91 °FBroken clouds.5 mph56%29.74 "HgN/A
3:00 PM91 °FBroken clouds.5 mph56%29.74 "HgN/A
Weather by CustomWeather, © 2014

See weather overviewHow to use our weather pages